User: anonymous   Login
Location: Unspecified
(0.0000°N, 0.0000°E)
Time: 04:10:23
(UTC+00:00)
Language:

USA 119 - Orbit

View from above orbital plane
View from above orbital plane
View from above satellite
View from above satellite

Ground track
Ground track

The orbit data is extracted from the following two-line orbital elements,

1 23893U 96029A   18019.48705929 0.00000000  00000-0  00000-0 0    07
2 23893  63.3197 164.0621 3378081 263.7671  57.4347  5.52853505    06
Epoch (UTC): 19 January 2018 11:41:21
Eccentricity: 0.3378081
inclination: 63.3197°
perigee height: 2568 km
apogee height: 11696 km
right ascension of ascending node: 164.0621°
argument of perigee: 263.7671°
revolutions per day: 5.52853505
mean anomaly at epoch: 57.4347°
orbit number at epoch: 0

The dashed part of the orbit path shows where the satellite is in the earth's shadow,  

DLR